COSMOS 1823 DEB, 39806

Orbit data source: Space-Track

COSMOS 1823 DEB, 39806 is space debris in LEO originally from a launch on Fri, 20 Feb 1987 UTC launched from the Plesetsk Missile And Space Complex (PKMTR). Debris objects in space refer to the collection of defunct objects orbiting the Earth. Examples of debris include non-operational satellites, rocket bodies, and fragments generated from explosions, collisions, or faulty payload assembly.

Loading next visibility...
Identifier
39806, 1987-020EE
Orbit
LEO
Country
Flag of CISCIS
Related business
Manufacturer
Unknown
Mission
Spacecraft
Bus & Motor
Unknown
Mass
Unknown
Launch date (UTC)
1987-02-20 (39 years ago)
Launch vehicle
Unknown
Launch site
Plesetsk Missile And Space Complex (PKMTR)
Object type
Payload
Rocket body
Debris
Shape & HBR
Unknown shape, 0.1 m
Radar Cross Section
Medium (>0.1 m² and <1 m²)

Expand to show TLE details & history
Last TLE update: 4 days ago

TLE from 4 days ago
0 COSMOS 1823 DEB
1 39806U 87020EE  26169.88915759  .00000224  00000-0  17947-2 0  9997
2 39806  73.6299 227.0187 0069670 342.3498  17.5125 12.39874036546236
Epoch: 2026-06-18T21:20Z
TLE epoch observation values (Epoch: 2026-06-18T21:20:23.215Z)
Latitude
-0.00007°
Longitude
-0.20406°
Altitude
1,457.121 km
Speed
7.158 km/s
True Right ascension
15h 08m 04s
True Declination
0° 00' 00"
Sunlit
Object was in full shadow at epoch
Visualization orbit readout
Latitude
Unknown
Longitude
Unknown
Altitude
Unknown
Speed
Unknown
Apparent Right ascension
Unknown
Apparent Declination
Unknown
Sunlit
N/A
Visualization observer readout
Local Sidereal Time
01:45:22
Azimuth
Unknown
Elevation
Unknown
Doppler factor
Unknown
Orbital elements
Apogee altitude
1,559.937 km
Perigee altitude
1,450.093 km
Semi-major axis
7,883.152 km
Eccentricity
0.00697
Inclination
73.6299°
RAAN
227.0187°
Arg. of periapsis
342.3498°
True anomaly
17.75475°
Mean anomaly
17.5125°
Eccentric anomaly
17.63342°
Mean motion
3.10094 °/min
Orbital period
116.09 mins
BSTAR
0.0017947
Loading maneuver chart data...
Computing Atmospheric mass density...

Documentation

Showing up to 5 results
|